Flag for Spain Weather past 2 weeks in Alicante, Spain

Now
72 °F

Passing clouds.


Feels Like: 72 °F
Forecast: 69 / 78 °F
Wind: 3 mph from North

Location: Alicante / El Altet

Current Time: Oct 2, 2014 at 6:13:57 AM

Latest Report: Oct 2, 2014 at 5:30 AM


Visibility: N/A

Pressure: 30.18 "Hg

Humidity: 78%

Dew point: 64 °F

Location of AlicanteLocation

Historic Weather in Alicante — Graph

°F

Alicante temperature yesterday

Maximum temperature yesterday: 79 °F (at 4:00 PM)
Minimum temperature yesterday: 68 °F (at 7:30 AM)
Average temperature yesterday: 74 °F

Past Weeks' High & Low Weather Summary

 TemperatureHumidityPressure
High90 °F (Sep 19, 2:00 PM)94% (Sep 17, 5:00 AM)30.27 "Hg (Sep 17, 5:00 AM)
Low63 °F (Sep 30, 6:30 AM)24% (Sep 19, 2:00 PM)29.71 "Hg (Sep 17, 6:30 PM)
Average75 °F69%30.03 "Hg
* Reported Sep 17 5:00 AM — Oct 2 5:00 AM, Alicante, Weather by CustomWeather, © 2014

Note: Actual official high and low records may vary slightly from our data, if they occured in-between our weather recording intervals... More about our weather records

Advertising

Alicante weather history for previous 24 hours

 ConditionsComfort  
Time TempWeatherWind HumidityBarometerVisibility
5:00 AM
Oct 2
72 °FPassing clouds.6 mph78%30.18 "HgN/A
4:30 AM72 °FPassing clouds.7 mph78%30.18 "HgN/A
4:00 AM72 °FPassing clouds.5 mph78%30.21 "HgN/A
3:30 AM72 °FPassing clouds.5 mph78%30.21 "HgN/A
3:00 AM72 °FPassing clouds.7 mph78%30.21 "HgN/A
2:30 AM72 °FPassing clouds.7 mph83%30.21 "HgN/A
2:00 AM72 °FPassing clouds.8 mph83%30.21 "HgN/A
1:30 AM72 °FPassing clouds.7 mph83%30.21 "HgN/A
1:00 AM72 °FPassing clouds.5 mph83%30.21 "HgN/A
12:30 AM73 °FPassing clouds.9 mph83%30.21 "HgN/A
12:00 AM73 °FPassing clouds.13 mph83%30.24 "HgN/A
11:30 PM
Oct 1
73 °FPassing clouds.15 mph83%30.24 "HgN/A
11:00 PM73 °FPassing clouds.13 mph83%30.24 "HgN/A
10:30 PM73 °FPassing clouds.16 mph78%30.24 "HgN/A
10:00 PM73 °FPassing clouds.16 mph83%30.21 "HgN/A
9:30 PM73 °FPassing clouds.17 mph83%30.21 "HgN/A
9:00 PM73 °FPassing clouds.17 mph83%30.21 "HgN/A
8:30 PM73 °FPassing clouds.20 mph83%30.21 "HgN/A
8:00 PM75 °FPassing clouds.18 mph78%30.21 "HgN/A
7:30 PM75 °FPassing clouds.20 mph78%30.18 "HgN/A
7:00 PM75 °FPassing clouds.20 mph78%30.18 "HgN/A
6:30 PM75 °FPassing clouds.20 mph78%30.18 "HgN/A
6:00 PM77 °FPassing clouds.20 mph74%30.18 "HgN/A
5:30 PM77 °FPassing clouds.16 mph65%30.21 "HgN/A
5:00 PM79 °FPassing clouds.17 mph61%30.18 "HgN/A
4:30 PM79 °FPassing clouds.16 mph61%30.18 "HgN/A
4:00 PM79 °FPassing clouds.14 mph61%30.18 "HgN/A
3:30 PM77 °FScattered clouds.15 mph69%30.18 "HgN/A
3:00 PM77 °FScattered clouds.16 mph69%30.18 "HgN/A
2:30 PM77 °FScattered clouds.17 mph69%30.21 "HgN/A
2:00 PM77 °FScattered clouds.18 mph69%30.21 "HgN/A
1:30 PM75 °FPassing clouds.16 mph74%30.24 "HgN/A
1:00 PM75 °FPassing clouds.16 mph74%30.24 "HgN/A
12:30 PM77 °FPassing clouds.12 mph69%30.27 "HgN/A
12:00 PM75 °FPassing clouds.13 mph69%30.24 "HgN/A
11:30 AM75 °FPassing clouds.13 mph74%30.24 "HgN/A
11:00 AM77 °FPassing clouds.14 mph69%30.24 "HgN/A
10:30 AM73 °FPassing clouds.6 mph69%30.24 "HgN/A
10:00 AM73 °FPassing clouds.5 mph74%30.21 "HgN/A
9:30 AM72 °FPassing clouds.7 mph73%30.21 "HgN/A
9:00 AM72 °FPassing clouds.6 mph78%30.21 "HgN/A
8:30 AM70 °FPassing clouds.3 mph83%30.21 "HgN/A
8:00 AM70 °FPassing clouds.6 mph83%30.24 "HgN/A
7:30 AM68 °FPassing clouds.5 mph88%30.21 "HgN/A
7:00 AM70 °FPassing clouds.5 mph83%30.21 "HgN/A
6:30 AM70 °FPassing clouds.5 mph78%30.21 "HgN/A
6:00 AM70 °FPassing clouds.6 mph78%30.21 "HgN/A
Weather by CustomWeather, © 2014

See weather overviewHow to use our weather pages